Time,TemperatureF,DewpointF,PressureIn,WindDirection,WindDirectionDegrees,WindSpeedMPH,WindSpeedGustMPH,Humidity,HourlyPrecipIn,Conditions,Clouds,dailyrainin,SoftwareType,DateUTC
2013-05-26 00:01:00,42.4,11.7,29.88,East,82,5.0,10.1,28,0.00,,,-99.99,FreeWX 2.04,2013-05-26 06:01:00,
2013-05-26 00:11:00,42.3,11.5,29.88,East,80,5.0,9.2,28,0.00,,,-99.99,FreeWX 2.04,2013-05-26 06:11:00,
2013-05-26 00:21:00,43.5,10.0,29.88,ESE,119,7.0,12.1,25,0.00,,,-99.99,FreeWX 2.04,2013-05-26 06:21:00,
2013-05-26 00:31:00,42.1,11.3,29.88,East,91,4.0,10.1,28,0.00,,,-99.99,FreeWX 2.04,2013-05-26 06:31:00,
2013-05-26 00:41:00,41.7,11.1,29.88,East,87,4.0,8.7,28,0.00,,,-99.99,FreeWX 2.04,2013-05-26 06:41:00,
2013-05-26 00:51:00,41.2,11.3,29.88,East,79,4.0,10.5,29,0.00,,,-99.99,FreeWX 2.04,2013-05-26 06:51:00,
2013-05-26 01:01:00,41.2,11.3,29.88,East,82,4.0,6.9,29,0.00,,,-99.99,FreeWX 2.04,2013-05-26 07:01:00,
2013-05-26 01:11:00,41.7,11.8,29.88,East,95,5.0,8.7,29,0.00,,,-99.99,FreeWX 2.04,2013-05-26 07:11:00,
2013-05-26 01:21:00,42.4,11.7,29.88,ESE,105,6.0,9.6,28,0.00,,,-99.99,FreeWX 2.04,2013-05-26 07:21:00,
2013-05-26 01:31:00,42.6,11.8,29.88,ESE,115,6.0,10.1,28,0.00,,,-99.99,FreeWX 2.04,2013-05-26 07:31:00,
2013-05-26 01:41:00,42.4,11.7,29.88,ESE,102,4.0,9.2,28,0.00,,,-99.99,FreeWX 2.04,2013-05-26 07:41:00,
2013-05-26 01:51:00,42.1,11.3,29.85,East,95,4.0,9.6,28,0.00,,,-99.99,FreeWX 2.04,2013-05-26 07:51:00,
2013-05-26 02:01:00,41.7,11.8,29.85,East,79,3.0,6.9,29,0.00,,,-99.99,FreeWX 2.04,2013-05-26 08:01:00,
2013-05-26 02:11:00,41.7,12.6,29.85,East,81,4.0,6.9,30,0.00,,,-99.99,FreeWX 2.04,2013-05-26 08:11:00,
2013-05-26 02:21:00,42.3,12.4,29.85,ESE,108,5.0,8.3,29,0.00,,,-99.99,FreeWX 2.04,2013-05-26 08:21:00,
2013-05-26 02:31:00,41.9,12.0,29.85,East,97,4.0,8.3,29,0.00,,,-99.99,FreeWX 2.04,2013-05-26 08:31:00,
2013-05-26 02:41:00,41.5,12.4,29.85,East,92,4.0,6.9,30,0.00,,,-99.99,FreeWX 2.04,2013-05-26 08:41:00,
2013-05-26 02:51:00,41.5,13.1,29.85,East,97,3.0,5.8,31,0.00,,,-99.99,FreeWX 2.04,2013-05-26 08:51:00,
2013-05-26 03:01:00,41.5,13.1,29.85,SE,129,5.0,7.8,31,0.00,,,-99.99,FreeWX 2.04,2013-05-26 09:01:00,
2013-05-26 03:11:00,41.0,15.4,29.85,SE,126,5.0,7.4,35,0.00,,,-99.99,FreeWX 2.04,2013-05-26 09:11:00,
2013-05-26 03:21:00,41.0,14.7,29.85,ESE,115,3.0,6.7,34,0.00,,,-99.99,FreeWX 2.04,2013-05-26 09:21:00,
2013-05-26 03:31:00,40.8,14.7,29.85,ESE,107,2.0,6.7,34,0.00,,,-99.99,FreeWX 2.04,2013-05-26 09:31:00,
2013-05-26 03:41:00,40.5,15.6,29.88,ESE,107,3.0,6.9,36,0.00,,,-99.99,FreeWX 2.04,2013-05-26 09:41:00,
2013-05-26 03:52:00,41.2,15.6,29.85,East,101,4.0,7.8,35,0.00,,,-99.99,FreeWX 2.04,2013-05-26 09:52:00,
2013-05-26 04:02:00,40.8,16.0,29.85,East,100,4.0,6.9,36,0.00,,,-99.99,FreeWX 2.04,2013-05-26 10:02:00,
2013-05-26 04:12:00,41.2,17.6,29.85,East,83,4.0,6.9,38,0.00,,,-99.99,FreeWX 2.04,2013-05-26 10:12:00,
2013-05-26 04:22:00,42.6,14.9,29.88,East,89,3.0,7.4,32,0.00,,,-99.99,FreeWX 2.04,2013-05-26 10:22:00,
2013-05-26 04:32:00,43.5,14.9,29.88,East,84,1.0,6.7,31,0.00,,,-99.99,FreeWX 2.04,2013-05-26 10:32:00,
2013-05-26 04:42:00,42.4,14.7,29.88,East,88,1.0,5.4,32,0.00,,,-99.99,FreeWX 2.04,2013-05-26 10:42:00,
2013-05-26 04:52:00,42.1,15.1,29.88,East,94,3.0,6.9,33,0.00,,,-99.99,FreeWX 2.04,2013-05-26 10:52:00,
2013-05-26 05:02:00,42.4,14.7,29.88,East,88,2.0,7.4,32,0.00,,,-99.99,FreeWX 2.04,2013-05-26 11:02:00,
2013-05-26 05:12:00,42.4,15.4,29.88,East,95,3.0,8.3,33,0.00,,,-99.99,FreeWX 2.04,2013-05-26 11:12:00,
2013-05-26 05:22:00,42.3,15.3,29.88,ESE,102,2.0,7.8,33,0.00,,,-99.99,FreeWX 2.04,2013-05-26 11:22:00,
2013-05-26 05:32:00,42.8,15.8,29.88,East,96,3.0,8.7,33,0.00,,,-99.99,FreeWX 2.04,2013-05-26 11:32:00,
2013-05-26 05:42:00,42.8,15.8,29.88,East,90,4.0,7.4,33,0.00,,,-99.99,FreeWX 2.04,2013-05-26 11:42:00,
2013-05-26 05:52:00,43.3,16.2,29.85,East,93,3.0,8.7,33,0.00,,,-99.99,FreeWX 2.04,2013-05-26 11:52:00,
2013-05-26 06:02:00,42.8,16.3,29.85,East,87,4.0,7.8,34,0.00,,,-99.99,FreeWX 2.04,2013-05-26 12:02:00,
2013-05-26 06:12:00,43.3,16.2,29.85,ESE,104,2.0,6.3,33,0.00,,,-99.99,FreeWX 2.04,2013-05-26 12:12:00,
2013-05-26 06:22:00,42.8,16.3,29.85,ESE,102,2.0,6.3,34,0.00,,,-99.99,FreeWX 2.04,2013-05-26 12:22:00,
2013-05-26 06:32:00,44.1,14.7,29.85,ESE,105,2.0,6.3,30,0.00,,,-99.99,FreeWX 2.04,2013-05-26 12:32:00,
2013-05-26 06:42:00,44.2,17.1,29.85,ESE,108,4.0,7.8,33,0.00,,,-99.99,FreeWX 2.04,2013-05-26 12:42:00,
2013-05-26 06:52:00,45.3,16.5,29.85,ESE,120,4.0,6.3,31,0.00,,,-99.99,FreeWX 2.04,2013-05-26 12:52:00,
2013-05-26 07:02:00,45.3,17.2,29.85,SE,125,4.0,6.9,32,0.00,,,-99.99,FreeWX 2.04,2013-05-26 13:02:00,
2013-05-26 07:12:00,45.9,16.9,29.85,SE,127,4.0,6.9,31,0.00,,,-99.99,FreeWX 2.04,2013-05-26 13:12:00,
2013-05-26 07:22:00,46.4,18.9,29.85,North,-999,0.0,4.9,33,0.00,,,-99.99,FreeWX 2.04,2013-05-26 13:22:00,
2013-05-26 07:32:00,48.0,19.6,29.85,East,101,2.0,6.9,32,0.00,,,-99.99,FreeWX 2.04,2013-05-26 13:32:00,
2013-05-26 07:42:00,49.3,16.7,29.85,East,82,1.0,5.4,27,0.00,,,-99.99,FreeWX 2.04,2013-05-26 13:42:00,
2013-05-26 07:52:00,50.5,17.8,29.85,SE,135,4.0,6.9,27,0.00,,,-99.99,FreeWX 2.04,2013-05-26 13:52:00,
2013-05-26 08:02:00,50.9,17.2,29.85,ESE,109,3.0,7.8,26,0.00,,,-99.99,FreeWX 2.04,2013-05-26 14:02:00,
2013-05-26 08:12:00,51.3,19.2,29.85,ENE,75,1.0,6.3,28,0.00,,,-99.99,FreeWX 2.04,2013-05-26 14:12:00,
2013-05-26 08:22:00,50.7,20.5,29.85,North,-999,0.0,4.0,30,0.00,,,-99.99,FreeWX 2.04,2013-05-26 14:22:00,
2013-05-26 08:32:00,49.8,23.4,29.85,North,-999,0.0,4.5,35,0.00,,,-99.99,FreeWX 2.04,2013-05-26 14:32:00,
2013-05-26 08:42:00,50.0,24.1,29.85,North,-999,0.0,0.0,36,0.00,,,-99.99,FreeWX 2.04,2013-05-26 14:42:00,
2013-05-26 08:52:00,51.8,22.8,29.85,North,-999,0.0,0.0,32,0.00,,,-99.99,FreeWX 2.04,2013-05-26 14:52:00,
2013-05-26 09:02:00,53.8,18.9,29.85,North,-999,0.0,0.0,25,0.00,,,-99.99,FreeWX 2.04,2013-05-26 15:02:00,
2013-05-26 09:12:00,55.0,21.7,29.85,North,-999,0.0,0.0,27,0.00,,,-99.99,FreeWX 2.04,2013-05-26 15:12:00,
2013-05-26 09:22:00,56.1,20.8,29.85,East,100,1.0,5.8,25,0.00,,,-99.99,FreeWX 2.04,2013-05-26 15:22:00,
2013-05-26 09:32:00,57.0,21.6,29.85,SE,126,4.0,6.7,25,0.00,,,-99.99,FreeWX 2.04,2013-05-26 15:32:00,
2013-05-26 09:42:00,58.3,21.7,29.85,SE,126,3.0,6.3,24,0.00,,,-99.99,FreeWX 2.04,2013-05-26 15:42:00,
2013-05-26 09:52:00,59.2,14.4,29.85,SE,138,2.0,6.7,17,0.00,,,-99.99,FreeWX 2.04,2013-05-26 15:52:00,
2013-05-26 10:02:00,59.9,10.6,29.85,SE,138,6.0,11.2,14,0.00,,,-99.99,FreeWX 2.04,2013-05-26 16:02:00,
2013-05-26 10:12:00,60.4,11.1,29.85,ESE,121,7.0,12.1,14,0.00,,,-99.99,FreeWX 2.04,2013-05-26 16:12:00,
2013-05-26 10:22:00,59.9,10.6,29.85,ESE,113,7.0,12.5,14,0.00,,,-99.99,FreeWX 2.04,2013-05-26 16:22:00,
2013-05-26 10:32:00,60.4,11.1,29.85,SE,124,4.0,10.5,14,0.00,,,-99.99,FreeWX 2.04,2013-05-26 16:32:00,
2013-05-26 10:42:00,60.8,11.3,29.85,SSE,157,5.0,11.0,14,0.00,,,-99.99,FreeWX 2.04,2013-05-26 16:42:00,
2013-05-26 10:52:00,61.3,11.8,29.85,SE,135,4.0,11.0,14,0.00,,,-99.99,FreeWX 2.04,2013-05-26 16:52:00,
2013-05-26 11:02:00,62.2,10.8,29.85,SE,139,4.0,10.5,13,0.00,,,-99.99,FreeWX 2.04,2013-05-26 17:02:00,
2013-05-26 11:12:00,62.2,10.8,29.85,SE,138,8.0,15.4,13,0.00,,,-99.99,FreeWX 2.04,2013-05-26 17:12:00,
2013-05-26 11:22:00,62.2,10.8,29.85,SE,136,7.0,13.4,13,0.00,,,-99.99,FreeWX 2.04,2013-05-26 17:22:00,
2013-05-26 11:32:00,63.1,11.5,29.85,ESE,111,7.0,13.4,13,0.00,,,-99.99,FreeWX 2.04,2013-05-26 17:32:00,
2013-05-26 11:42:00,65.5,11.5,29.82,ESE,113,6.0,12.5,12,0.00,,,-99.99,FreeWX 2.04,2013-05-26 17:42:00,
2013-05-26 11:52:00,66.6,12.4,29.82,ESE,120,7.0,13.4,12,0.00,,,-99.99,FreeWX 2.04,2013-05-26 17:52:00,
2013-05-26 12:02:00,65.7,11.7,29.82,ESE,121,6.0,13.9,12,0.00,,,-99.99,FreeWX 2.04,2013-05-26 18:02:00,
2013-05-26 12:12:00,64.8,-99.9,29.82,SSE,166,8.0,13.4,-999,0.00,,,-99.99,FreeWX 2.04,2013-05-26 18:12:00,
2013-05-26 12:22:00,66.9,-99.9,29.82,SSE,163,6.0,11.6,-999,0.00,,,-99.99,FreeWX 2.04,2013-05-26 18:22:00,
2013-05-26 12:32:00,66.6,-99.9,29.82,SSW,193,2.0,12.1,-999,0.00,,,-99.99,FreeWX 2.04,2013-05-26 18:32:00,
2013-05-26 12:42:00,66.7,-99.9,29.82,SSE,154,8.0,14.3,-999,0.00,,,-99.99,FreeWX 2.04,2013-05-26 18:42:00,
2013-05-26 12:52:00,67.3,-99.9,29.82,SSW,196,5.0,11.2,-999,0.00,,,-99.99,FreeWX 2.04,2013-05-26 18:52:00,
2013-05-26 13:02:00,68.2,-99.9,29.82,SSW,199,4.0,7.8,-999,0.00,,,-99.99,FreeWX 2.04,2013-05-26 19:02:00,
2013-05-26 13:12:00,67.3,-99.9,29.82,SSW,212,5.0,10.1,-999,0.00,,,-99.99,FreeWX 2.04,2013-05-26 19:12:00,
2013-05-26 13:22:00,67.3,-99.9,29.82,SSW,197,4.0,11.0,-999,0.00,,,-99.99,FreeWX 2.04,2013-05-26 19:22:00,
2013-05-26 13:32:00,68.2,-99.9,29.82,SSW,194,4.0,10.1,-999,0.00,,,-99.99,FreeWX 2.04,2013-05-26 19:32:00,
2013-05-26 13:42:00,67.6,-99.9,29.82,South,176,6.0,11.6,-999,0.00,,,-99.99,FreeWX 2.04,2013-05-26 19:42:00,
2013-05-26 13:52:00,67.6,-99.9,29.82,SSW,210,4.0,12.1,-999,0.00,,,-99.99,FreeWX 2.04,2013-05-26 19:52:00,
2013-05-26 14:02:00,66.7,-99.9,29.82,SSE,158,7.0,13.0,-999,0.00,,,-99.99,FreeWX 2.04,2013-05-26 20:02:00,
2013-05-26 14:12:00,68.0,-99.9,29.82,SSW,203,6.0,15.2,-999,0.00,,,-99.99,FreeWX 2.04,2013-05-26 20:12:00,
2013-05-26 14:22:00,67.1,-99.9,29.82,SSW,207,4.0,11.0,-999,0.00,,,-99.99,FreeWX 2.04,2013-05-26 20:22:00,
2013-05-26 14:32:00,65.1,-99.9,29.82,SSW,192,4.0,10.5,-999,0.00,,,-99.99,FreeWX 2.04,2013-05-26 20:32:00,
2013-05-26 14:42:00,58.5,21.7,29.82,SSW,209,5.0,12.1,24,0.00,,,-99.99,FreeWX 2.04,2013-05-26 20:42:00,
2013-05-26 14:52:00,56.5,21.0,29.82,SW,224,6.0,11.6,25,0.00,,,-99.99,FreeWX 2.04,2013-05-26 20:52:00,
2013-05-26 15:03:00,56.7,21.2,29.82,SW,224,5.0,12.5,25,0.00,,,-99.99,FreeWX 2.04,2013-05-26 21:03:00,
2013-05-26 15:13:00,56.3,22.8,29.82,SW,230,5.0,11.2,27,0.00,,,-99.99,FreeWX 2.04,2013-05-26 21:13:00,
2013-05-26 15:23:00,54.5,23.7,29.82,SW,225,6.0,16.3,30,0.00,,,-99.99,FreeWX 2.04,2013-05-26 21:23:00,
2013-05-26 15:33:00,56.7,27.1,29.82,SW,222,5.0,10.5,32,0.00,,,-99.99,FreeWX 2.04,2013-05-26 21:33:00,
2013-05-26 15:43:00,57.7,23.2,29.82,WSW,247,7.0,16.3,26,0.00,,,-99.99,FreeWX 2.04,2013-05-26 21:43:00,
2013-05-26 15:53:00,57.7,24.8,29.82,WSW,258,6.0,12.1,28,0.00,,,-99.99,FreeWX 2.04,2013-05-26 21:53:00,
2013-05-26 16:03:00,57.0,22.5,29.82,WSW,257,6.0,13.9,26,0.00,,,-99.99,FreeWX 2.04,2013-05-26 22:03:00,
2013-05-26 16:13:00,56.1,22.6,29.82,West,271,6.0,12.1,27,0.00,,,-99.99,FreeWX 2.04,2013-05-26 22:13:00,
2013-05-26 16:23:00,55.6,22.1,29.82,West,275,6.0,13.9,27,0.00,,,-99.99,FreeWX 2.04,2013-05-26 22:23:00,
2013-05-26 16:33:00,55.0,20.8,29.82,West,270,6.0,14.3,26,0.00,,,-99.99,FreeWX 2.04,2013-05-26 22:33:00,
2013-05-26 16:43:00,54.3,21.9,29.82,West,269,6.0,13.9,28,0.00,,,-99.99,FreeWX 2.04,2013-05-26 22:43:00,
2013-05-26 16:53:00,50.4,27.0,29.82,WSW,256,6.0,12.1,40,0.00,,,-99.99,FreeWX 2.04,2013-05-26 22:53:00,
2013-05-26 17:03:00,51.3,27.1,29.82,WSW,238,5.0,13.0,39,0.00,,,-99.99,FreeWX 2.04,2013-05-26 23:03:00,
2013-05-26 17:13:00,51.4,26.6,29.85,WSW,242,7.0,13.4,38,0.00,,,-99.99,FreeWX 2.04,2013-05-26 23:13:00,
2013-05-26 17:23:00,52.3,29.3,29.85,WSW,241,3.0,8.7,41,0.00,,,-99.99,FreeWX 2.04,2013-05-26 23:23:00,
2013-05-26 17:33:00,54.1,19.9,29.85,WSW,254,3.0,10.5,26,0.00,,,-99.99,FreeWX 2.04,2013-05-26 23:33:00,
2013-05-26 17:43:00,53.6,19.6,29.82,West,278,2.0,7.4,26,0.00,,,-99.99,FreeWX 2.04,2013-05-26 23:43:00,
2013-05-26 17:53:00,54.7,19.6,29.82,WNW,297,3.0,6.3,25,0.00,,,-99.99,FreeWX 2.04,2013-05-26 23:53:00,
2013-05-26 18:03:00,56.5,29.1,29.82,West,277,1.0,5.8,35,0.00,,,-99.99,FreeWX 2.04,2013-05-27 00:03:00,
2013-05-26 18:13:00,58.5,16.3,29.82,NNW,335,2.0,6.7,19,0.00,,,-99.99,FreeWX 2.04,2013-05-27 00:13:00,
2013-05-26 18:23:00,59.5,20.7,29.82,NNW,343,1.0,4.5,22,0.00,,,-99.99,FreeWX 2.04,2013-05-27 00:23:00,
2013-05-26 18:33:00,61.3,11.8,29.82,NW,320,4.0,7.4,14,0.00,,,-99.99,FreeWX 2.04,2013-05-27 00:33:00,
2013-05-26 18:43:00,60.6,14.2,29.82,NW,318,2.0,7.4,16,0.00,,,-99.99,FreeWX 2.04,2013-05-27 00:43:00,
2013-05-26 18:53:00,60.4,14.0,29.82,North,-999,0.0,0.0,16,0.00,,,-99.99,FreeWX 2.04,2013-05-27 00:53:00,
2013-05-26 19:03:00,60.3,17.8,29.82,North,-999,0.0,3.1,19,0.00,,,-99.99,FreeWX 2.04,2013-05-27 01:03:00,
2013-05-26 19:13:00,60.6,11.1,29.82,North,-999,0.0,4.0,14,0.00,,,-99.99,FreeWX 2.04,2013-05-27 01:13:00,
2013-05-26 19:23:00,61.2,11.7,29.82,North,-999,0.0,0.0,14,0.00,,,-99.99,FreeWX 2.04,2013-05-27 01:23:00,
2013-05-26 19:33:00,62.2,10.8,29.82,North,-999,0.0,3.1,13,0.00,,,-99.99,FreeWX 2.04,2013-05-27 01:33:00,
2013-05-26 19:43:00,62.8,11.3,29.82,North,-999,0.0,3.6,13,0.00,,,-99.99,FreeWX 2.04,2013-05-27 01:43:00,
2013-05-26 19:53:00,62.8,11.3,29.82,North,-999,0.0,3.1,13,0.00,,,-99.99,FreeWX 2.04,2013-05-27 01:53:00,
2013-05-26 20:03:00,61.0,14.5,29.82,NW,323,3.0,5.8,16,0.00,,,-99.99,FreeWX 2.04,2013-05-27 02:03:00,
2013-05-26 20:13:00,59.0,14.2,29.82,NNW,329,2.0,5.4,17,0.00,,,-99.99,FreeWX 2.04,2013-05-27 02:13:00,
2013-05-26 20:23:00,57.9,13.5,29.82,North,-999,0.0,0.0,17,0.00,,,-99.99,FreeWX 2.04,2013-05-27 02:23:00,
2013-05-26 20:33:00,56.3,19.9,29.82,North,-999,0.0,0.0,24,0.00,,,-99.99,FreeWX 2.04,2013-05-27 02:33:00,
2013-05-26 20:43:00,54.5,22.1,29.82,North,-999,0.0,0.0,28,0.00,,,-99.99,FreeWX 2.04,2013-05-27 02:43:00,
2013-05-26 20:53:00,52.9,20.7,29.82,North,-999,0.0,4.5,28,0.00,,,-99.99,FreeWX 2.04,2013-05-27 02:53:00,
2013-05-26 21:03:00,52.3,20.3,29.82,ESE,106,3.0,5.4,28,0.00,,,-99.99,FreeWX 2.04,2013-05-27 03:03:00,
2013-05-26 21:13:00,50.9,22.1,29.82,ESE,108,2.0,5.8,32,0.00,,,-99.99,FreeWX 2.04,2013-05-27 03:13:00,
2013-05-26 21:23:00,50.2,22.3,29.82,ESE,118,2.0,6.7,33,0.00,,,-99.99,FreeWX 2.04,2013-05-27 03:23:00,
2013-05-26 21:33:00,48.7,23.0,29.82,ESE,106,1.0,5.4,36,0.00,,,-99.99,FreeWX 2.04,2013-05-27 03:33:00,
2013-05-26 21:43:00,48.2,23.2,29.82,ESE,108,1.0,5.8,37,0.00,,,-99.99,FreeWX 2.04,2013-05-27 03:43:00,
2013-05-26 21:53:00,48.0,23.0,29.82,ESE,108,2.0,5.4,37,0.00,,,-99.99,FreeWX 2.04,2013-05-27 03:53:00,
2013-05-26 22:03:00,48.9,23.2,29.82,ESE,104,4.0,7.4,36,0.00,,,-99.99,FreeWX 2.04,2013-05-27 04:03:00,
2013-05-26 22:13:00,48.7,23.7,29.85,East,99,1.0,6.7,37,0.00,,,-99.99,FreeWX 2.04,2013-05-27 04:13:00,
2013-05-26 22:23:00,50.2,22.3,29.88,South,171,2.0,7.8,33,0.00,,,-99.99,FreeWX 2.04,2013-05-27 04:23:00,
2013-05-26 22:33:00,48.7,25.5,29.88,WSW,250,6.0,14.8,40,0.00,,,-99.99,FreeWX 2.04,2013-05-27 04:33:00,
2013-05-26 22:43:00,46.9,28.2,29.91,SSE,158,2.0,11.6,48,0.00,,,-99.99,FreeWX 2.04,2013-05-27 04:43:00,
2013-05-26 22:53:00,45.3,29.7,29.88,North,-999,0.0,3.6,54,0.00,,,-99.99,FreeWX 2.04,2013-05-27 04:53:00,
2013-05-26 23:03:00,44.6,31.6,29.88,East,80,1.0,4.9,60,0.00,,,-99.99,FreeWX 2.04,2013-05-27 05:03:00,
2013-05-26 23:13:00,44.2,30.4,29.88,North,-999,0.0,2.7,58,0.00,,,-99.99,FreeWX 2.04,2013-05-27 05:13:00,
2013-05-26 23:23:00,43.7,32.0,29.88,North,-999,0.0,0.0,63,0.00,,,-99.99,FreeWX 2.04,2013-05-27 05:23:00,
2013-05-26 23:33:00,43.5,32.5,29.88,ESE,115,2.0,8.3,65,0.00,,,-99.99,FreeWX 2.04,2013-05-27 05:33:00,
2013-05-26 23:43:00,43.3,31.3,29.88,ESE,104,5.0,9.2,62,0.00,,,-99.99,FreeWX 2.04,2013-05-27 05:43:00,
2013-05-26 23:53:00,43.0,31.6,29.88,ESE,102,3.0,6.9,64,0.00,,,-99.99,FreeWX 2.04,2013-05-27 05:53:00,